Regional Weather Roundup
Issued by NWS New Orleans/Baton Rouge, LA

Home | Current Version | Previous Version | Graphics & Text | Print | Product List | Glossary On
Versions: 1 2 3 4 5 6 7 8 9 10 11 12 13 14 15 16 17 18 19 20 21 22 23 24 25 26 27 28 29 30 31 32 33 34 35 36 37 38 39 40 41 42 43 44 45 46 47 48 49 50
744
ASUS44 KLIX 022210
RWRLIX
NEW ORLEANS REGIONAL WEATHER ROUNDUP
NATIONAL WEATHER SERVICE NEW ORLEANS LA
400 PM CST MON MAR 02 2015

NOTE: "FAIR" INDICATES FEW OR NO CLOUDS BELOW 12,000 FEET WITH NO
      SIGNIFICANT WEATHER AND/OR OBSTRUCTIONS TO VISIBILITY.
      SKY/WX - SKY CONDITION AND SIGNIFICANT WEATHER.
      TMP - AIR TEMPERATURE.     DP    - DEWPOINT TEMPERATURE.
      RH  - RELATIVE HUMIDITY.   PRES  - PRESSURE.
      HI  - HEAT INDEX.          WCI   - WIND CHILL INDEX.

*  THESE STATIONS ARE NOT NWS OR FAA STATIONS AND ARE NOT UNDER
   NWS QUALITY CONTROL.

LAZ038-040-048-061>063-065>067-069-022300-
SOUTHEAST LOUISIANA

CITY           SKY/WX    TMP DP  RH WIND       PRES   REMARKS
N.O. AUDUBON     N/A     74  73  96 MISG        N/A
N.O. INTL ARPT PTSUNNY   75  68  78 E5        30.18S
N.O. LAKEFRONT PTSUNNY   69  63  81 E8        30.20S
SLIDELL        CLOUDY    72  68  87 E5        30.19F
BATON ROUGE    CLOUDY    64  62  93 N6        30.20S FOG
BOOTHVILLE     MOSUNNY   76  69  79 S9        30.20F
BELLE CHASSE   LGT RAIN  74  67  78 NE7       30.18S
BOGALUSA*        N/A     66  63  89 CALM      30.22F
GALLIANO*      PTCLDY    80  68  67 S10       30.18F
NEW ROADS*     RAIN      52  51  97 NW6       30.22F
GONZALES*      CLOUDY    78  71  80 NW6       30.16F
HAMMOND*       NOT AVBL
HOUMA*         PTSUNNY   77  72  83 S9        30.17F
PORT FOURCHON* CLEAR     75  70  83 S8        30.22S

$$

MSZ070-080>082-022300-
SOUTHERN MISSISSIPPI

CITY           SKY/WX    TMP DP  RH WIND       PRES   REMARKS
MCCOMB         LGT RAIN  63  62  97 SE6       30.21S FOG
GULFPORT       FOG       65  64  97 SE6       30.21S VSB 1/4
BILOXI         CLOUDY    64  64 100 SE6       30.21S FOG
PASCAGOULA     CLOUDY    66  65  96 SE6       30.22S
STENNIS ARPT*  CLOUDY    66  63  88 CALM      30.21F FOG

$$

COASTAL OBSERVATIONS
LAKE AND NEARSHORE STATIONS

STATION/POSITION TIME  TEMP    WIND        PRES    WAVE
                       AIR SEA DIR/SP/G            HT/PER
                 (UTC) (F)     (DEG/KT/KT) (MB)    (FT/S)
PASCAGOULA       2200   64     100/  5/  9 1022.8
WAVELAND YACHT   2200   65 55  110/  6/  7 1022.6
GRAND ISLE       2200   72 60  150/  4/  5 1022.9
SOUTHWEST PASS   2200   80 48  140/  7/  7 1022.9
NEW CANAL        2200   61      60/  8/  9 1022.5
SHELL BEACH      2200   62 57   20/ 11/ 12 1022.4

OFFSHORE STATIONS

STATION/POSITION TIME  TEMP    WIND        PRES    WAVE
                       AIR SEA DIR/SP/G            HT/PER
                 (UTC) (F)     (DEG/KT/KT) (MB)    (FT/S)
64 S DAUPHIN ISL 2054   71 72  150/  8/ 10 1023.5    3/ 6

$$




USA.gov is the U.S. government's official web portal to all federal, state and local government web resources and services.